Temp
24 24 25 25 25 25 25 25 25 25 24 24 24 24 24 24 24 24 24 24 24 24 24 24 24 24 24 24 24 24 24 24 24 24 24 24 24 24 24 24 24 24
24 24 25 25 25 25 25 25 25 25 25 25 25 24 24 24 24 24 24 24 24 24 24 24 24 24 24 24 24 24 24 24 24 24 24 24 24 24 24 24 24 24
25 25 25 25 25 25 25 25 25 25 25 25 25 25 24 24 24 24 24 24 24 24 24 24 24 24 24 24 24 24 24 24 24 24 24 24 24 24 24 24 24 24
25 25 25 25 25 25 25 25 25 25 25 25 25 25 25 25 24 24 24 24 24 24 24 24 24 24 24 24 24 24 24 24 24 24 24 24 24 24 24 24 24 24
25 25 25 25 25 25 25 25 25 25 25 25 25 25 25 25 24 24 24 24 24 24 24 24 24 24 24 24 24 24 24 24 24 24 24 24 24 24 24 24 24 24
25 24 24 24 25 25 25 25 25 25 25 25 25 25 25 25 25 25 24 24 24 24 24 24 24 24 24 24 24 24 24 24 24 24 24 24 24 24 24 24 24 24
24 24 24 24 25 25 25 25 25 25 25 25 25 25 25 25 25 25 25 24 24 24 24 24 24 24 24 24 24 24 24 24 24 24 24 24 24 24 24 24 24 24
24 24 24 24 24 25 25 25 25 25 25 25 25 25 25 25 25 25 25 24 24 24 24 24 24 24 24 24 24 24 24 24 24 24 24 24 24 24 24 24 24 24
24 24 24 24 24 24 25 25 25 25 25 25 25 25 25 25 25 25 25 24 24 24 25 25 25 25 25 25 24 24 24 24 24 24 24 24 24 24 24 24 24 24
24 24 24 24 24 24 24 24 25 25 25 25 25 25 25 25 25 25 25 25 25 25 25 25 25 25 25 25 25 25 24 24 24 24 24 24 24 24 24 24 24 25
23 24 24 24 24 24 24 24 24 25 25 25 25 25 25 25 25 25 25 25 25 25 25 25 25 25 25 25 25 25 25 24 24 24 24 24 24 24 24 24 24 24
23 23 23 24 24 24 24 24 24 24 24 25 25 25 25 25 25 25 25 25 25 25 25 25 25 25 25 25 25 25 25 25 25 24 24 24 24 24 24 24 24 24
23 23 23 23 24 24 24 24 24 24 24 24 24 24 24 25 25 25 25 25 25 25 25 25 25 25 25 25 25 25 25 25 25 25 25 25 25 25 24 24 24 24
23 23 23 23 23 23 23 24 23 24 24 24 24 24 24 24 24 24 25 25 25 25 25 25 25 25 25 25 25 25 25 25 25 25 25 25 25 25 25 25 25 25
21 22 22 22 22 23 23 23 23 23 23 23 24 24 24 24 24 24 24 24 25 25 25 25 25 25 25 25 26 26 25 25 25 25 25 25 25 25 25 25 25 25
20 21 22 22 22 22 22 23 23 23 23 23 23 23 23 23 24 24 24 24 24 25 25 25 25 25 26 26 26 26 26 25 25 25 25 25 25 25 25 25 25 25
20 21 22 21 22 22 22 22 22 22 22 22 23 23 23 23 23 23 24 24 24 25 25 25 25 25 26 26 26 26 25 25 25 25 25 25 25 25 26 26 26 26
20 20 21 21 21 21 22 21 21 22 22 22 22 22 22 23 23 23 23 23 24 24 25 25 25 25 26 26 26 26 26 25 25 25 25 25 25 25 26 26 26 26
20 20 20 20 20 20 20 20 20 21 22 22 22 22 22 23 23 24 24 23 23 24 24 24 25 25 25 25 25 25 25 25 25 25 25 25 25 25 25 25 25 26
19 19 19 19 20 20 20 20 20 21 22 22 22 23 23 23 23 23 24 24 23 24 24 24 24 25 25 25 25 25 25 25 25 25 25 25 25 25 25 25 25 25
19 19 19 19 19 19 20 20 20 20 21 21 21 22 22 22 22 22 23 23 23 23 24 24 24 25 25 25 25 25 25 25 25 25 25 25 25 26 26 26 26 25
18 18 18 19 19 19 19 20 19 19 20 20 20 21 21 21 21 22 22 22 23 23 23 24 24 24 24 24 25 25 25 25 25 25 25 25 25 26 26 26 26 26
17 18 18 18 18 19 19 19 19 19 19 19 20 20 20 20 21 21 21 22 22 22 23 23 23 23 23 23 24 24 24 25 25 25 25 25 25 26 26 26 26 25
18 18 18 18 18 18 18 19 19 19 19 19 19 19 19 20 20 20 20 21 21 21 21 22 22 22 22 23 23 23 24 24 24 24 25 25 25 25 25 25 25 25
18 18 18 18 18 18 18 18 18 19 19 20 19 19 19 19 20 20 20 20 20 20 21 21 21 21 22 22 22 22 22 23 23 23 24 24 24 24 24 24 25 25
18 18 18 18 18 18 18 18 18 18 19 20 20 19 19 19 19 19 20 20 20 20 20 20 20 21 21 21 21 21 21 22 22 22 22 23 23 23 23 24 24 24
Height
852 853 855 857 858 859 860 861 863 864 865 866 867 869 869 870 871 872 873 874 875 876 876 877 877 878 878 879 879 880 880 880 881 881 881 882 882 882 883 883 884 884
850 852 854 855 856 858 859 860 861 863 864 865 867 868 869 870 871 872 873 874 874 875 876 876 877 877 878 878 879 879 880 880 880 881 881 881 881 881 882 882 883 883
848 850 852 853 855 856 858 859 860 862 863 864 865 867 868 869 871 871 872 873 873 874 875 876 876 877 877 878 878 878 879 879 880 880 880 880 880 881 881 881 882 882
846 848 850 852 853 855 857 858 859 860 862 863 864 866 867 868 870 871 872 872 873 874 874 875 875 876 877 877 878 878 878 879 879 879 879 879 880 880 880 880 881 881
844 846 848 850 852 854 855 856 858 859 860 862 863 865 866 867 869 870 871 872 872 873 873 874 875 875 876 876 877 878 878 878 878 878 879 879 879 879 879 880 880 880
843 845 847 849 850 852 853 854 856 858 859 861 862 863 865 866 867 868 869 870 871 872 872 873 874 874 875 876 876 877 877 878 878 878 878 878 878 878 878 879 879 879
842 844 845 847 849 850 852 853 855 856 857 859 860 862 863 864 865 867 868 869 870 871 871 872 873 874 874 875 875 876 876 877 878 878 878 878 878 878 877 878 878 878
841 843 844 846 847 849 850 851 853 854 856 857 858 860 861 862 864 865 866 867 868 869 870 871 872 872 873 874 874 875 875 876 877 877 877 877 877 877 877 877 877 877
839 841 843 845 846 847 849 850 852 853 854 855 856 858 859 861 862 863 864 866 867 868 869 870 871 871 872 872 873 873 874 874 875 876 876 876 876 876 876 876 876 876
838 840 842 844 845 846 847 849 850 852 853 854 855 857 858 859 861 862 863 864 865 866 867 868 869 870 871 871 871 872 872 873 874 874 875 875 875 875 876 876 875 875
837 839 840 842 843 844 846 847 849 851 852 853 854 855 857 858 859 860 861 862 863 864 866 867 867 868 869 869 870 871 871 871 872 872 873 874 874 874 875 875 875 874
836 837 838 840 841 843 844 846 848 849 851 852 853 854 856 857 858 859 860 861 862 863 864 865 866 867 867 868 868 869 869 870 870 871 871 871 872 873 873 873 873 873
835 836 837 838 840 842 843 845 847 848 849 851 852 853 854 856 857 858 859 860 861 861 862 864 864 865 866 866 867 867 867 868 868 869 869 869 870 870 871 872 872 872
834 835 835 837 839 840 842 844 845 847 848 850 851 852 853 854 855 857 858 859 859 860 861 862 862 863 864 864 865 865 866 866 866 867 867 867 867 868 868 869 869 870
833 833 834 836 837 839 841 843 844 845 846 848 849 850 852 853 854 855 856 857 858 858 859 860 860 861 862 863 863 864 864 864 864 864 865 865 865 866 866 866 867 867
831 832 832 833 835 837 839 841 843 844 845 846 847 848 850 851 852 853 854 855 855 856 857 857 858 858 859 860 861 862 862 862 862 862 862 863 863 863 864 864 864 864
828 829 829 830 832 834 836 838 841 842 844 845 845 846 847 848 849 851 852 852 853 854 854 855 855 856 857 858 859 860 860 860 860 860 860 860 861 861 861 861 861 862
826 827 828 829 830 832 834 836 838 840 841 842 843 844 845 846 847 847 848 850 851 851 852 852 853 853 854 855 856 857 858 858 858 858 858 858 858 858 858 858 859 859
825 826 827 829 830 831 833 835 836 838 839 840 840 841 842 843 844 845 845 847 848 849 849 849 850 851 852 853 853 854 855 856 856 856 856 855 855 855 855 856 856 856
824 825 826 828 828 829 831 834 835 836 836 837 837 838 839 840 842 842 843 844 845 846 847 847 848 849 850 850 851 851 852 853 853 853 853 853 853 853 853 853 853 853
824 824 824 825 826 828 830 832 833 833 833 834 835 835 837 838 840 841 841 842 843 844 844 845 846 847 848 848 848 849 849 849 850 850 850 850 850 850 850 850 850 850
826 825 825 825 827 828 830 831 832 832 832 833 834 834 835 836 837 838 839 839 840 841 842 842 843 845 846 846 846 847 847 847 847 847 847 847 847 847 847 847 847 847
829 828 827 827 828 829 830 831 831 831 832 833 834 835 835 835 836 836 837 837 838 839 839 840 841 842 843 844 844 845 845 844 844 844 844 844 844 844 844 844 845 845
832 830 829 829 828 828 830 832 833 833 832 832 834 835 836 836 836 836 836 836 836 837 838 838 838 839 841 841 842 842 842 842 842 842 842 841 841 841 842 842 842 842
833 832 830 829 828 828 830 833 835 835 833 831 832 835 837 837 836 836 836 836 836 837 837 837 837 837 838 839 840 840 840 840 840 840 839 839 839 839 839 839 840 840
833 833 832 831 831 832 834 836 837 836 834 832 832 835 837 838 837 836 836 837 836 836 836 836 836 836 837 837 838 838 838 837 838 838 838 838 837 837 837 837 837 837
Wind_Speed
22 19 18 17 18 19 18 17 16 15 15 14 13 12 11 12 13 13 12 11 10 9 9 10 10 10 9 8 8 7 6 6 5 4 4 4 4 4 4 4 3 3
24 20 18 17 17 18 18 17 15 14 14 13 12 12 11 11 12 13 12 11 10 10 10 10 11 11 10 9 8 8 7 7 6 6 5 5 5 5 5 4 4 3
25 22 19 17 17 18 17 16 15 14 13 13 12 12 12 12 12 12 12 11 11 10 10 10 10 11 11 10 9 8 8 8 8 7 7 6 5 5 5 4 4 4
27 23 20 18 17 17 16 16 16 15 14 13 13 13 12 12 13 13 12 12 11 11 11 11 10 11 11 11 10 9 10 10 9 8 8 7 6 6 5 5 5 5
28 24 21 19 18 17 17 16 16 15 15 14 13 13 13 13 13 13 13 13 12 11 11 11 11 11 11 11 11 11 11 11 11 10 9 9 8 7 7 6 6 6
27 25 22 21 19 18 18 18 16 15 15 15 14 14 13 13 13 13 13 13 13 12 12 12 11 12 11 12 12 12 12 13 12 12 12 11 10 9 8 8 8 7
27 26 23 22 20 19 19 19 17 16 16 15 14 14 13 13 13 13 13 13 13 14 13 13 13 13 13 13 13 13 13 13 13 13 14 13 12 11 10 10 10 9
27 26 25 23 22 21 20 20 19 17 16 16 15 14 14 14 14 13 13 13 14 15 15 14 14 14 15 15 15 15 14 14 14 15 15 15 14 14 12 11 12 12
26 26 25 24 23 23 22 22 20 18 17 17 17 16 15 15 15 15 14 14 14 15 16 16 16 16 16 16 16 16 15 15 14 15 15 15 15 15 14 13 13 14
25 25 25 25 25 24 24 23 22 20 19 18 17 17 17 16 16 16 16 16 16 16 16 17 17 17 16 16 16 16 16 15 14 15 15 16 16 15 15 14 14 14
25 25 25 25 26 25 25 25 24 21 20 19 18 18 18 18 17 17 17 17 17 17 17 17 17 18 17 17 17 17 17 16 15 15 16 16 16 16 16 15 15 15
24 25 25 26 26 25 25 25 25 24 22 21 20 19 19 19 19 18 18 18 18 18 18 18 18 18 18 18 18 19 19 18 18 17 17 17 17 17 17 17 16 16
24 24 25 24 24 24 24 24 24 24 24 22 21 20 20 20 20 20 21 20 20 20 20 20 20 20 21 20 20 20 21 20 20 19 18 17 17 17 18 18 18 17
24 24 23 22 22 23 23 23 23 23 23 23 22 22 22 22 22 22 23 23 23 22 21 21 21 22 23 22 22 21 22 22 21 21 20 19 19 18 18 19 19 19
20 20 20 19 19 21 22 22 23 22 22 21 21 21 22 22 22 22 23 24 25 24 23 23 23 24 24 24 24 23 23 23 23 23 22 21 20 20 20 20 21 21
14 16 20 19 17 18 19 20 21 20 20 19 18 18 18 19 21 22 23 24 25 25 25 24 24 25 25 25 25 25 25 25 25 25 24 24 23 22 22 22 22 23
14 17 20 19 17 17 17 18 18 17 17 16 16 16 15 15 16 17 20 23 24 25 26 26 26 25 25 25 25 25 26 26 27 27 26 26 26 25 25 25 24 24
16 16 16 16 16 17 17 17 16 16 16 17 17 16 17 17 16 15 15 17 20 23 24 25 26 26 25 25 26 25 26 27 28 28 28 28 28 27 28 27 27 26
12 10 9 10 12 13 12 12 13 14 16 18 19 19 20 21 21 20 17 15 17 20 21 22 24 24 24 24 24 25 25 26 27 28 29 29 29 29 29 29 28 28
9 8 6 3 2 5 6 7 9 11 13 16 18 20 22 23 24 23 21 19 20 22 22 22 23 23 23 22 23 23 23 24 25 27 28 29 29 29 29 29 29 29
17 16 14 12 10 7 7 6 6 8 11 12 12 14 16 18 19 19 19 19 20 21 21 22 23 22 22 22 22 22 22 23 24 25 27 28 29 29 29 29 29 29
20 20 19 17 15 12 10 7 4 1 4 6 7 8 9 11 14 15 16 17 17 17 17 18 19 19 20 21 21 20 19 20 22 24 26 27 28 28 28 29 29 29
21 21 21 19 17 14 11 7 7 8 7 3 1 4 6 9 11 12 13 13 14 14 14 15 15 15 16 18 18 18 18 18 19 21 23 25 27 27 28 29 29 30
22 22 20 18 16 14 10 6 5 7 9 8 6 4 2 3 6 8 8 8 8 9 10 11 12 13 13 15 15 15 16 17 17 18 20 22 23 24 25 26 27 28
21 21 20 19 17 13 9 4 2 3 5 6 6 6 6 5 4 5 5 5 5 7 7 8 9 8 9 11 12 13 14 15 16 17 17 18 19 20 20 21 22 22
20 20 20 20 19 15 11 5 2 1 3 5 5 4 6 6 6 5 5 5 4 5 6 6 6 6 6 7 8 9 11 13 14 15 16 17 17 17 18 18 18 19
Wind_Direction
217 220 223 225 228 229 227 225 225 225 225 225 226 229 230 225 217 214 216 221 231 239 240 241 238 236 239 239 243 253 254 254 260 259 262 272 273 264 256 255 256 258
218 222 226 230 232 231 230 231 233 234 233 233 232 235 240 236 226 220 220 226 237 242 244 245 241 239 241 241 244 253 252 251 255 258 264 274 273 260 253 255 257 259
219 221 224 230 232 230 231 233 237 239 239 240 239 241 244 241 234 228 227 233 241 245 246 245 243 240 240 241 246 255 259 257 257 260 266 268 265 258 255 258 259 258
218 221 222 226 230 231 232 235 238 239 239 240 242 243 246 245 240 236 237 241 246 249 249 248 245 241 239 242 250 259 265 264 260 262 264 260 259 259 256 258 258 253
219 221 222 224 228 231 233 235 237 239 238 240 243 245 247 247 244 244 246 248 250 253 253 251 248 245 244 249 257 265 269 269 267 267 263 258 259 262 258 258 256 249
222 223 224 225 228 232 235 235 236 239 240 241 244 245 244 245 246 248 251 253 254 256 258 257 252 249 251 256 262 267 270 271 272 271 268 263 262 263 260 257 256 253
223 225 225 226 228 234 237 236 235 238 240 242 244 242 242 244 246 248 252 255 255 258 261 263 259 257 258 261 264 267 269 271 272 272 270 269 266 262 259 256 255 256
225 226 227 228 229 233 236 235 235 238 240 241 242 242 243 246 248 251 254 256 257 260 264 266 267 265 264 264 265 265 266 266 268 269 268 269 267 263 260 257 256 258
224 226 228 230 231 233 234 234 235 237 240 242 243 243 245 247 251 254 255 256 260 263 265 266 268 268 266 265 263 263 264 264 265 267 267 267 267 265 263 259 257 260
223 225 228 230 232 234 235 234 235 237 239 242 244 245 246 249 253 256 255 255 258 262 264 264 264 265 265 264 261 260 262 262 263 266 269 270 269 268 268 265 262 261
223 224 227 230 233 235 235 235 235 237 239 241 243 245 247 250 253 255 254 253 254 258 262 263 264 264 264 263 262 260 261 262 262 264 268 271 273 274 273 272 269 267
223 224 227 229 233 236 237 238 237 238 239 240 242 245 247 249 253 256 256 255 255 258 261 263 263 263 264 264 264 263 262 263 264 265 267 269 272 275 276 276 274 272
224 224 227 229 232 235 238 240 240 241 241 242 243 245 247 249 252 256 259 260 261 261 262 264 264 263 264 264 264 263 262 262 264 266 266 267 269 271 274 275 274 274
225 223 225 227 230 233 236 239 240 240 242 245 248 249 251 253 256 259 263 265 265 265 265 266 265 265 264 263 263 262 260 260 262 265 266 267 267 267 269 270 272 272
220 218 219 223 227 231 235 238 239 239 240 243 248 252 255 258 260 262 264 266 267 267 267 267 266 265 265 265 264 263 261 260 260 263 265 267 268 267 267 268 270 271
214 216 216 220 226 230 232 235 237 238 238 239 242 247 253 258 260 263 264 266 269 270 269 267 266 267 268 269 268 266 265 263 262 263 265 266 268 269 269 270 271 272
221 224 220 220 227 232 234 235 235 237 239 240 240 241 244 247 252 259 263 266 268 269 270 269 267 269 270 271 272 270 267 265 264 265 266 266 267 268 270 272 273 275
229 234 234 234 239 242 243 244 244 245 244 243 243 243 243 241 241 245 254 264 266 266 268 269 268 270 271 272 273 272 269 267 265 266 267 267 268 268 269 272 274 276
220 229 237 244 249 251 253 252 251 252 251 249 248 247 246 244 242 240 241 254 266 266 266 268 269 270 271 272 273 274 272 268 266 267 267 268 269 270 271 272 273 275
138 134 128 136 202 229 239 247 248 248 249 249 249 250 251 250 248 244 241 251 265 266 263 265 268 269 271 271 272 274 274 270 267 267 267 268 270 271 272 273 274 275
89 92 90 86 88 112 147 178 215 235 238 239 243 250 255 255 252 249 249 255 264 265 264 266 267 268 269 269 270 272 274 272 269 266 265 266 267 269 271 273 274 274
72 76 77 76 81 96 118 134 131 154 219 221 225 232 235 235 236 238 243 249 254 257 262 265 268 269 268 268 269 272 274 273 271 268 267 265 266 268 269 272 274 274
64 68 70 72 78 86 95 96 72 62 70 92 176 227 225 228 235 236 238 243 245 247 253 258 263 266 267 268 269 271 273 276 276 274 271 269 269 270 269 270 271 272
62 65 66 69 74 79 82 74 57 62 69 70 57 20 319 259 256 257 256 257 256 253 254 256 259 262 264 265 265 263 266 271 276 278 277 276 277 277 275 273 274 274
63 64 63 63 66 70 72 55 5 38 65 69 55 22 360 353 339 314 296 290 283 272 264 262 264 267 271 271 267 263 261 262 267 271 273 275 279 282 281 281 280 280
63 65 65 66 68 73 81 97 142 126 65 61 62 39 5 360 1 352 334 320 305 283 270 269 271 274 287 291 281 270 266 264 265 269 272 274 277 279 280 281 282 284